Regional Weather Roundup
Issued by NWS

Home | Current Version | Previous Version | Graphics & Text | Print | Product List | Glossary On
Versions: 1 2 3 4 5 6 7 8 9 10 11 12 13 14 15 16 17 18 19 20 21 22 23 24 25 26 27 28 29 30 31 32 33 34 35 36 37 38 39 40 41 42 43 44 45 46 47 48 49 50
000
ASUS43 KDTX 260301
RWRMI
MICHIGAN HOURLY REGIONAL WEATHER ROUNDUP
NATIONAL WEATHER SERVICE DETROIT/PONTIAC MI
1100 PM EDT WED APR 25 2018

NOTE: "FAIR" INDICATES FEW OR NO CLOUDS BELOW 12,000 FEET WITH NO
SIGNIFICANT WEATHER AND/OR OBSTRUCTION TO VISIBILITY.

MIZ047>049-052>055-059>063-066>070-074>076-081>083-260400-
SOUTHEAST LOWER MICHIGAN

CITY           SKY/WX    TMP DP  RH WIND       PRES   REMARKS
ADRIAN         FAIR      47  41  80 SE7       29.97R
ALMA           FAIR      42  33  71 N5        29.98F
ANN ARBOR      FAIR      45  37  73 N6        29.95S
BAD AXE        CLOUDY    43  35  73 W3        29.96F
CARO           FAIR      38  34  86 CALM      29.97S
DETROIT CITY   FAIR      43  35  73 N10       29.96S
DETROIT        FAIR      47  36  65 N6        29.96S
FLINT          FAIR      41  36  82 NE7       29.98S
GROSSE ILE     FAIR      42  39  88 E6        29.96S
HILLSDALE      FAIR      45  34  65 NW7       29.94S
HOWELL         FAIR      42  37  80 CALM      29.97R

CITY           SKY/WX    TMP DP  RH WIND       PRES   REMARKS
JACKSON        FAIR      46  39  76 N7        29.97R
LAMBERTVILLE   FAIR      47  41  78 E5        29.96R
LANSING        FAIR      44  34  67 CALM      29.98S
LAPEER         CLOUDY    41  36  83 CALM      29.97F
MASON          FAIR      44  36  72 N6        29.97S
MT. CLEMENS    CLEAR     39  39 100 N8        29.94F WCI  34
PONTIAC        FAIR      42  36  79 N7        29.95S
PORT HOPE        N/A     40  35  83 W6        29.94S
PORT HURON     CLOUDY    39  36  87 NW3       29.96F
TRI CITIES     MOCLDY    42  36  79 CALM      29.99S
MIDLAND        FAIR      39  34  82 CALM      29.98F
TROY           FAIR      43  37  79 NE7       29.98S
SAGINAW HB     CLOUDY    41  36  81 W3        29.98F
$$
MIZ043>046-050>051-056>058-064>065-071>073-077>080-260400-
SOUTHWEST LOWER MICHIGAN

CITY           SKY/WX    TMP DP  RH WIND       PRES   REMARKS
BATTLE CREEK   FAIR      44  32  62 NW5       29.98R
BENTON HARBOR  FAIR      40  31  70 CALM      30.00F
BIG RAPIDS     FAIR      40  28  64 N3        29.99S
COLDWATER      FAIR      43  32  64 NW6       29.97S
HOLLAND        FAIR      43  31  62 N7        29.99F
GRAND RAPIDS   FAIR      46  32  58 N8        29.98S
IONIA          FAIR      43  32  65 N5        29.98S
KALAMAZOO      FAIR      42  32  67 NW6       29.98S
LUDINGTON      FAIR      33  30  90 CALM      30.01F
MARSHALL       FAIR      44  33  65 CALM      29.97S
MOUNT PLEASANT FAIR      42  35  74 CALM      29.98F
MUSKEGON       FAIR      43  27  53 N7        30.01S
SOUTH HAVEN    FAIR      39  32  75 N6        30.00S
$$
MIZ016>042-260400-
NORTHERN LOWER MICHIGAN

CITY           SKY/WX    TMP DP  RH WIND       PRES   REMARKS
ALPENA         FAIR      37  28  70 NW3       29.97S
BEAVER ISLAND  FAIR      37  28  68 CALM      30.00S
CADILLAC       FAIR      29  26  90 CALM      29.98S
CHARLEVOIX     FAIR      33  30  86 CALM      30.02F
FRANKFORT      FAIR      33  28  83 CALM      30.01S
GAYLORD        FAIR      35  28  75 W3        29.97S
HARBOR SPRINGS FAIR      32  32  99 CALM      29.99S
HOUGHTON LAKE  FAIR      35  28  75 NW6       29.98F WCI  30
MANISTEE       FAIR      32  29  88 CALM      30.01F
OSCODA         FAIR      32  28  84 W3        29.95F
PELLSTON       FAIR      34  28  79 W3        29.99S
ROGERS CITY    FAIR      36  27  71 NW6       29.98S WCI  31
TRAVERSE CITY  FAIR      35  28  75 CALM      29.99F
$$
MIZ007>008-015-260400-
EASTERN UPPER MICHIGAN

CITY           SKY/WX    TMP DP  RH WIND       PRES   REMARKS
KINROSS        FAIR      29  26  89 NW6       29.97F WCI  23
MACKINAC ISLAN FAIR      34  27  75 NW8       29.97F WCI  28
NEWBERRY       FAIR      30  26  83 CALM      29.98F
MUNISING         N/A     30  25  81 S6        29.98F WCI  24
$$
MIZ004>006-011>014-085-260400-
CENTRAL UPPER MICHIGAN

CITY           SKY/WX    TMP DP  RH WIND       PRES   REMARKS
MANISTIQUE     FAIR      30  23  73 NW6       29.99F WCI  24
ESCANABA       FAIR      31  26  82 CALM      30.01F
MENOMINEE      FAIR      37  27  67 CALM      30.02F
SAWYER-GWINN   FAIR      32  22  69 S7        29.97F WCI  25
$$
MIZ001>003-009>011-084-260400-
WESTERN UPPER MICHIGAN

CITY           SKY/WX    TMP DP  RH WIND       PRES   REMARKS
IRON MOUNTAIN  FAIR      41  27  57 SE6       29.96F
HOUGHTON       FAIR      37  18  46 CALM      29.94F
COPPER HARBOR    N/A     32  24  72 VRB3      29.95F
IRONWOOD       FAIR      36  27  69 CALM      29.96S
$$

ABBREVIATIONS USED IN REMARKS
   TC - TEMPERATURE IN CELSIUS
  WCI - WIND CHILL INDEX
   HX - HEAT INDEX
  VSB - VISIBILITY





USA.gov is the U.S. government's official web portal to all federal, state and local government web resources and services.